{"data":{"norad_id":68758,"epoch":"2026-05-24T22:58:04.572768Z","epoch_age_seconds":75387,"freshness":"FRESH","line1":"1 68758U 26083F   26144.95699737  .00001466  00000+0  10382-3 0  9998","line2":"2 68758  97.8020 282.6194 0011802 128.4956 231.7331 15.06397209  5705","mean_motion":15.06397209,"eccentricity":0.0011802,"inclination_deg":97.802,"raan_deg":282.6194,"arg_perigee_deg":128.4956,"mean_anomaly_deg":231.7331,"bstar":0.00010382,"rev_number":570,"period_min":95.592317311576,"perigee_km":539.04680550097,"apogee_km":555.39341842805,"semimajor_km":6925.3571119645,"source":"CELESTRAK","updated_at":"2026-05-25T13:38:08.059886Z"}}